Theta_e
333 334 333 333 332 331 331 330 329 327 322 319 319 321 325 329 329 329 328 327 325 323 323 324 322 319 319 320 320 320 320 321 323 326 328 331 334 335 336 337 337 338 338 337 336 336 337 340 342 344 345 346 347 348 350 351 351 351 350 348 347 347 347 345 341 337 335 335 337 340 341 342 342 342
334 334 334 334 332 331 331 329 328 326 319 316 318 319 320 324 327 328 327 326 324 323 322 322 321 319 319 320 320 321 321 320 323 326 328 329 330 332 334 336 337 339 340 340 338 337 336 339 342 344 344 345 346 347 348 350 350 350 350 349 348 347 347 347 345 342 339 338 338 339 339 340 341 342
335 335 334 334 333 330 330 329 328 324 318 316 318 319 319 321 323 325 326 326 324 322 322 320 320 320 321 320 321 321 321 321 323 326 328 330 330 331 333 335 336 337 339 340 340 339 338 339 342 345 345 345 345 347 347 348 349 349 350 350 349 348 347 346 346 345 343 342 341 340 339 338 339 340
335 335 335 335 334 331 330 329 328 325 319 316 318 319 319 320 320 323 325 326 324 322 321 321 320 320 320 320 321 321 322 322 323 324 326 329 331 332 333 334 335 335 337 337 337 339 341 341 342 345 346 346 346 347 348 348 349 349 350 350 349 349 347 347 346 345 344 344 343 341 339 337 337 339
335 334 335 335 333 331 330 329 329 327 321 316 317 319 319 319 320 322 323 325 324 322 321 321 321 321 321 321 320 321 321 322 323 323 323 326 329 332 334 334 335 336 336 336 336 337 341 343 343 345 346 346 346 346 347 348 349 350 350 350 350 349 348 347 346 346 345 344 344 342 340 338 337 338
334 334 335 335 333 331 330 329 329 328 325 319 317 318 319 320 320 321 323 324 324 323 322 321 322 321 321 320 320 321 321 322 323 323 323 325 327 331 333 334 335 336 336 337 336 337 341 344 345 345 345 345 345 344 345 346 349 349 349 350 350 349 349 349 347 347 346 346 345 344 343 341 339 338
332 334 334 334 333 331 330 329 328 328 327 324 319 317 318 320 320 321 322 323 324 323 323 322 322 321 321 320 320 320 321 322 323 324 324 325 327 330 332 334 335 335 336 337 337 338 340 343 345 346 346 346 345 345 345 345 347 348 349 350 350 349 349 349 348 348 347 347 346 345 344 343 342 341
331 332 333 334 333 332 330 330 329 328 328 327 323 319 318 319 320 320 322 323 324 324 323 323 323 322 321 320 320 320 321 322 323 324 324 325 327 329 332 334 335 336 336 337 338 339 340 343 345 346 345 345 345 345 345 345 346 347 347 348 348 348 348 348 348 348 347 347 346 345 344 344 343 343
330 330 331 332 333 332 331 330 329 328 328 328 326 322 319 318 319 320 321 322 324 324 324 324 323 322 321 320 320 320 321 322 323 323 324 325 326 328 331 333 335 336 337 337 338 339 340 342 344 346 346 345 344 344 344 345 346 346 346 346 346 346 346 348 348 349 348 348 346 345 344 343 344 344
330 330 330 331 332 332 331 330 329 329 328 328 328 326 322 320 319 320 322 323 324 325 324 324 323 322 320 320 320 320 321 322 323 323 324 325 326 328 330 332 335 336 337 337 338 339 340 340 342 344 345 344 343 343 343 344 345 345 346 346 345 344 345 347 348 348 348 347 345 344 344 344 345 344
330 330 329 329 330 331 331 331 330 329 329 328 328 328 326 322 321 321 323 324 324 325 325 324 322 321 320 320 320 320 320 321 322 323 325 325 326 326 328 330 333 336 337 338 339 339 340 339 339 340 340 339 340 342 342 342 342 343 344 345 345 344 345 346 347 347 347 345 345 345 345 346 345 346
330 328 327 328 329 330 330 329 329 329 328 328 327 328 327 325 323 323 323 324 324 325 325 323 322 320 320 319 319 319 320 321 321 322 323 325 326 325 326 327 329 332 336 338 340 340 341 341 341 341 341 340 341 342 341 341 341 342 342 344 344 345 345 345 346 346 346 346 346 346 346 346 346 346
329 327 327 328 329 330 328 327 328 328 328 328 328 327 327 326 324 324 325 325 325 325 324 323 321 320 319 319 319 319 320 320 321 321 322 324 325 325 326 326 327 329 333 337 340 340 341 343 343 344 343 342 341 341 341 340 340 342 343 343 345 345 345 346 346 346 347 347 346 346 346 346 345 344
330 328 327 328 329 329 328 326 326 327 327 328 328 328 328 326 326 326 326 325 325 324 324 323 321 320 319 319 319 320 320 320 320 321 322 323 324 325 326 326 326 327 331 336 339 340 342 343 343 344 344 343 342 341 341 340 340 343 345 345 346 346 345 345 346 346 347 347 346 346 346 344 343 341
330 329 328 328 329 329 328 326 325 326 326 327 327 327 327 327 327 327 327 327 325 324 324 323 321 320 319 319 320 320 321 320 320 321 321 322 324 325 326 326 326 327 330 335 339 340 341 343 344 344 344 344 343 343 342 340 340 343 345 345 345 346 346 345 345 347 348 347 346 346 346 343 342 341
329 330 329 329 329 329 329 327 326 325 325 325 326 326 327 326 326 327 327 327 326 324 324 324 322 321 320 320 321 321 321 320 320 321 321 322 323 324 325 326 327 326 329 334 338 339 340 342 344 344 344 344 344 343 342 340 339 342 343 343 344 345 345 345 345 347 347 347 347 347 345 343 342 341
327 328 328 327 327 329 330 328 326 326 324 325 325 326 326 326 327 327 328 328 327 327 326 324 323 321 320 320 321 321 320 320 320 321 321 322 323 324 325 325 326 326 327 332 337 339 340 342 344 344 343 344 344 344 343 341 340 342 341 341 343 346 346 346 347 348 348 347 348 347 344 342 342 342
325 325 325 325 326 328 330 329 328 326 325 325 325 326 326 327 327 326 326 326 326 326 325 323 322 321 321 321 320 319 319 319 320 320 321 322 322 323 324 324 325 326 326 329 334 337 339 341 344 345 344 344 345 344 344 343 341 341 341 339 341 346 349 348 348 349 348 348 347 345 343 342 342 342
325 324 324 326 328 330 331 330 329 327 326 325 325 326 327 327 325 323 322 322 322 322 323 322 321 321 320 320 319 318 318 318 319 320 320 321 322 322 323 324 324 325 325 327 332 336 338 340 343 345 344 345 345 345 344 344 343 342 341 340 341 344 346 348 348 347 346 346 345 344 342 342 342 342
323 324 326 328 330 331 331 330 329 328 327 326 326 327 326 324 322 321 321 322 322 321 321 321 320 319 317 317 317 317 317 318 319 320 321 321 322 322 323 324 325 325 325 326 329 334 337 339 342 345 345 345 346 346 346 346 345 344 344 344 342 342 343 345 346 346 345 345 344 343 343 343 342 342
324 326 329 330 331 332 331 330 329 329 327 327 327 325 323 322 322 323 322 321 321 320 320 318 317 316 316 316 316 317 317 318 319 320 321 321 322 322 323 325 325 325 325 325 327 333 337 339 341 344 345 345 346 346 346 346 346 345 345 345 344 344 344 345 346 346 345 344 343 343 342 343 343 343
326 327 328 329 330 330 329 328 328 328 328 327 325 322 322 322 323 322 321 320 321 321 319 317 315 316 316 316 316 317 318 319 319 321 322 322 322 322 324 325 325 325 326 325 328 334 338 338 341 344 344 345 346 346 346 346 346 347 347 346 347 346 345 345 345 346 345 344 343 343 343 343 343 343
325 324 323 324 326 327 327 328 328 327 326 325 322 322 322 321 320 320 319 319 320 320 319 317 316 317 316 317 317 317 318 319 320 321 322 323 323 323 324 325 326 326 327 328 331 336 339 339 341 343 344 345 347 346 347 348 347 347 347 347 347 348 347 347 346 346 345 343 343 344 344 343 343 344
322 321 322 323 324 325 327 327 326 325 323 322 322 322 320 318 317 318 318 318 319 318 318 318 318 317 317 317 317 317 318 319 320 321 322 323 323 324 324 325 326 327 328 331 334 337 339 340 342 342 343 345 346 346 347 348 348 348 348 348 348 348 348 348 349 348 347 346 345 346 346 345 345 344
321 322 323 324 324 326 326 326 325 323 322 322 322 320 318 316 316 316 317 318 318 317 317 318 318 318 317 317 317 317 318 319 320 321 322 323 324 324 325 326 326 326 328 332 336 337 339 341 341 342 343 344 344 345 346 347 348 348 348 348 348 348 349 350 351 350 349 348 348 348 348 347 347 347
321 322 324 325 325 325 325 325 324 324 323 322 320 318 316 315 315 316 316 316 316 315 316 317 318 318 318 317 317 317 317 318 320 321 322 323 324 324 325 326 326 326 326 330 335 338 339 340 341 342 343 343 342 343 345 346 347 347 348 349 349 349 349 350 351 351 349 349 349 348 348 349 349 349
321 323 324 323 323 323 324 324 325 325 323 320 318 316 315 314 314 315 316 315 314 315 315 316 317 317 318 317 317 317 317 318 320 321 322 324 325 324 325 326 326 326 326 329 335 338 339 340 341 341 342 342 342 343 344 345 346 347 347 348 349 349 349 349 350 350 350 349 349 349 350 351 351 350
321 322 322 321 322 323 323 324 324 323 321 318 315 315 314 313 313 314 313 312 313 313 314 315 315 316 316 317 317 317 317 317 320 321 322 324 326 325 325 325 326 325 326 329 335 338 339 340 341 342 342 342 343 343 344 344 345 347 347 348 348 348 349 349 350 350 350 351 351 352 352 352 351 350
320 320 321 322 323 322 321 321 320 319 318 315 313 313 312 311 311 311 310 310 311 312 313 314 314 314 315 315 316 316 316 317 319 321 321 323 325 326 325 325 326 325 325 328 332 337 339 340 340 342 342 341 341 342 343 343 344 345 346 346 347 347 348 349 350 350 351 351 352 351 352 352 351 350
320 321 321 321 320 318 317 317 316 315 314 313 311 311 310 309 309 309 309 309 310 311 311 312 313 313 313 314 315 316 317 317 319 321 321 321 323 325 325 324 325 325 325 326 328 333 338 341 340 340 340 340 340 341 342 342 342 344 345 346 345 345 346 348 348 348 349 349 350 350 350 350 349 349
321 320 318 317 317 316 315 315 314 313 312 311 310 309 308 307 307 308 308 308 308 309 310 311 311 311 312 314 315 316 316 317 318 320 321 320 321 323 325 325 325 326 326 326 328 331 335 339 340 339 338 337 339 341 341 341 341 341 343 345 345 343 344 345 345 346 346 347 346 347 346 346 346 346
319 317 316 316 315 314 314 313 312 311 310 309 308 307 306 306 306 306 307 307 307 308 309 309 310 310 311 312 313 314 316 317 317 319 321 321 319 320 322 323 323 324 326 329 331 334 335 336 337 338 338 338 339 340 340 340 340 340 341 342 344 344 343 343 343 343 344 344 343 343 343 343 344 344
317 316 315 315 313 312 311 311 309 308 307 306 305 305 305 304 304 305 306 306 306 307 307 308 309 309 310 311 312 313 315 316 317 318 320 321 320 319 320 320 320 321 322 325 328 332 335 337 337 337 338 338 338 338 340 340 340 340 340 341 343 344 344 343 342 341 342 341 341 341 341 342 343 344
315 314 313 312 311 310 308 307 306 305 304 304 303 303 303 303 303 303 304 305 305 306 306 307 307 308 309 310 311 312 314 315 316 317 318 320 321 320 320 320 320 320 320 321 323 326 330 335 338 337 337 338 337 336 337 339 339 339 339 341 342 343 344 343 342 342 341 341 341 340 340 340 340 342
313 312 310 309 308 307 307 306 305 304 303 303 302 302 302 302 302 302 303 304 304 304 305 305 306 307 308 309 310 311 313 314 314 315 317 318 320 321 321 321 320 319 319 320 321 322 326 332 335 335 334 334 334 333 333 334 336 338 339 339 340 341 341 343 344 343 342 342 341 340 339 338 339 340
310 308 307 306 305 305 305 305 304 304 303 302 301 301 301 301 301 301 302 303 303 303 304 304 305 306 307 308 309 310 312 312 313 314 315 316 317 319 320 322 322 320 319 319 320 321 324 327 332 334 335 335 335 334 330 328 329 333 335 337 340 340 341 342 343 342 342 341 341 340 339 339 339 339
306 305 305 305 305 305 305 304 304 303 303 302 300 299 300 300 300 300 301 302 302 303 303 303 304 305 305 306 307 309 310 312 312 312 313 314 315 316 318 320 322 322 320 319 320 321 323 324 327 331 335 338 340 337 328 323 324 327 330 333 337 339 341 342 342 341 341 341 340 340 340 339 339 339
305 305 305 305 305 305 304 303 303 302 301 301 300 298 298 299 300 300 301 302 302 302 303 303 303 304 304 305 306 308 309 310 311 311 311 312 314 314 315 317 320 321 321 320 320 321 323 323 323 325 329 335 341 338 328 321 319 321 324 329 333 335 338 341 342 341 341 340 340 341 341 341 340 340
305 305 305 305 304 303 303 302 301 300 300 300 299 298 297 298 299 299 300 301 301 302 302 302 303 303 303 304 305 306 308 310 310 310 310 311 312 313 313 315 317 319 321 321 321 321 322 323 323 322 322 325 329 328 323 320 317 317 321 327 331 333 335 338 341 342 342 342 341 341 341 341 341 340
304 303 303 303 303 302 301 301 300 299 298 298 299 298 296 296 297 299 300 301 301 301 301 302 302 303 303 303 304 305 307 308 309 309 309 309 310 312 312 313 314 316 319 321 321 321 321 322 322 323 322 321 321 321 320 319 319 318 319 322 326 329 333 335 337 339 341 341 341 341 340 339 339 339
303 302 301 301 301 301 301 300 299 298 297 297 298 297 294 293 295 298 300 300 300 300 301 301 301 302 302 302 303 304 305 306 307 307 307 308 309 310 311 312 312 314 316 318 320 321 322 321 322 323 322 322 322 321 321 321 320 320 319 319 320 323 327 330 332 333 335 336 338 339 339 338 337 337
303 302 301 301 300 300 300 299 299 298 296 295 295 294 291 291 295 299 300 300 300 300 300 300 301 301 301 302 302 303 303 304 305 306 306 306 307 308 309 310 311 312 313 316 318 321 321 320 320 321 321 321 321 321 321 321 321 320 320 319 319 319 321 323 326 328 329 330 331 331 333 335 336 336
303 302 302 301 300 300 299 299 298 297 293 291 292 291 290 292 297 299 300 300 300 300 300 300 300 300 301 301 302 302 302 303 303 304 304 305 305 307 308 308 310 311 312 314 318 322 322 321 320 319 320 320 321 320 320 321 320 320 320 319 319 319 319 320 322 323 324 325 325 325 326 329 331 333
303 302 301 300 300 299 298 298 298 295 291 289 289 289 291 295 298 299 299 299 299 300 300 300 300 300 300 300 301 302 302 302 302 303 303 303 304 305 306 307 308 310 311 313 316 320 323 323 321 320 320 320 320 319 319 319 319 319 320 319 319 319 319 319 320 321 322 322 322 322 323 325 327 330
303 302 301 300 300 299 298 298 297 294 289 288 288 289 293 297 299 298 299 299 299 300 300 300 299 299 299 299 300 301 301 301 301 302 303 303 303 303 304 305 307 308 310 312 314 317 320 323 322 321 321 320 320 320 320 320 320 319 319 319 319 319 319 319 319 319 319 320 320 320 321 323 326 327
Wind_Speed
10 9 8 8 8 7 6 6 5 3 4 3 2 3 4 4 4 3 3 4 4 10 16 16 20 27 30 30 31 31 32 31 30 31 33 34 37 38 38 39 39 39 39 39 39 41 42 43 45 46 46 46 45 46 46 45 46 47 47 46 46 45 43 41 41 41 41 41 40 39 39 38 37 35
10 10 10 10 10 9 9 8 6 5 4 3 2 2 3 4 4 4 4 4 5 11 17 18 22 28 31 32 33 33 33 33 32 31 33 35 37 38 40 40 40 39 40 39 38 39 41 42 43 44 45 46 45 46 46 46 45 46 47 47 46 45 44 43 42 42 41 41 41 40 40 39 38 37
11 12 12 12 11 11 11 10 9 7 6 4 3 3 3 4 5 7 7 4 6 11 18 22 26 27 29 32 34 34 34 34 32 31 33 36 37 38 39 40 41 40 39 38 37 38 39 40 41 42 43 44 44 45 46 46 46 45 46 47 46 45 44 43 42 42 42 41 41 41 40 39 39 38
13 14 15 14 13 12 12 12 11 10 8 6 5 5 5 5 5 9 10 7 10 18 20 23 27 27 28 31 32 34 36 35 33 32 33 34 36 37 38 39 40 41 40 39 39 38 39 39 39 40 41 41 42 44 44 45 45 44 44 46 47 46 44 43 42 42 41 41 41 40 39 39 39 38
14 15 16 16 14 13 13 13 13 13 11 9 8 7 8 8 7 10 12 11 11 19 22 22 26 28 28 30 31 33 36 37 35 34 34 34 34 36 38 38 39 40 41 41 41 40 39 39 38 39 41 41 41 42 42 43 44 44 44 45 46 46 45 44 43 42 41 41 41 40 39 38 38 38
15 15 16 16 15 15 15 15 14 15 14 13 12 11 10 11 11 11 15 15 12 16 23 24 27 28 27 29 32 33 34 37 37 35 36 35 34 34 36 38 39 39 40 42 42 41 40 39 38 38 40 41 40 40 41 42 44 44 44 44 46 46 45 45 44 43 42 41 41 40 39 38 38 38
16 16 16 17 17 16 17 17 17 17 18 16 15 15 14 14 15 14 16 18 15 16 22 24 26 28 28 29 33 34 34 35 35 34 35 35 35 34 35 37 39 39 40 41 42 42 40 40 39 38 38 39 39 39 40 42 44 44 44 44 45 45 45 45 45 44 43 41 41 40 39 38 38 38
16 16 17 17 18 18 19 20 19 19 20 20 19 18 17 17 18 18 18 20 20 19 20 24 27 29 29 30 33 34 34 33 32 32 33 34 35 34 34 36 38 39 39 40 41 42 40 39 40 39 38 38 38 38 39 42 44 44 44 44 45 45 45 45 45 44 44 42 41 40 39 39 38 38
16 16 17 18 18 19 21 22 22 22 22 22 22 21 21 20 20 20 20 21 23 22 21 24 27 29 29 30 32 32 32 32 32 32 32 33 34 33 33 34 35 36 38 39 40 41 41 40 40 40 39 38 38 38 39 41 43 44 44 44 44 44 44 45 45 45 44 42 41 40 39 39 39 39
16 16 17 18 18 19 21 22 23 24 24 24 25 25 25 24 22 21 22 22 23 23 23 25 27 27 28 29 30 32 31 30 31 32 33 34 32 30 30 32 33 34 35 37 39 40 41 41 41 41 41 40 39 39 39 40 43 44 45 45 44 43 43 44 45 44 43 41 40 39 38 38 38 38
15 15 16 16 17 18 20 22 23 25 26 26 27 28 28 26 23 21 23 23 22 22 23 24 25 26 27 28 29 32 32 30 29 28 28 30 31 31 30 30 31 32 33 35 37 38 39 40 41 41 41 41 39 38 38 39 41 43 44 45 44 42 42 43 44 43 42 40 38 37 37 37 37 37
15 15 15 16 16 17 18 19 21 24 26 26 27 28 28 27 24 22 23 23 21 21 22 23 25 25 25 27 29 30 30 27 26 26 25 26 30 33 32 31 31 32 33 34 35 36 37 37 39 39 39 40 39 37 37 37 39 41 43 44 44 43 41 41 42 42 40 39 37 36 36 35 35 35
16 16 17 17 16 16 16 17 18 20 22 24 26 27 27 26 25 23 22 21 21 20 20 22 24 22 22 25 27 27 27 26 28 31 30 27 29 31 32 34 33 30 31 33 33 34 35 35 36 38 38 38 38 37 37 38 39 41 42 43 44 43 42 41 41 41 40 38 37 35 34 34 33 33
19 18 18 18 17 17 17 17 16 17 20 22 24 25 25 25 25 24 22 22 22 20 19 21 22 19 19 24 26 26 29 31 31 31 29 28 29 28 26 30 33 30 28 30 32 33 33 33 33 35 37 37 37 38 39 40 40 40 40 41 42 43 43 43 42 40 39 38 36 34 33 32 31 31
21 20 20 20 19 19 18 17 16 17 19 20 21 22 22 23 24 24 24 24 23 21 20 22 22 19 20 25 28 30 32 33 32 30 29 28 28 24 18 18 26 28 25 25 29 32 33 32 32 34 35 36 37 38 39 39 38 38 37 38 39 40 42 43 42 40 39 37 35 33 32 31 30 29
21 21 21 22 22 21 20 19 18 19 19 17 17 18 18 19 20 21 23 25 25 24 23 22 23 23 24 26 29 33 34 34 33 33 32 29 27 25 20 17 23 29 27 24 26 29 31 30 31 33 35 35 37 37 37 37 36 37 37 37 37 37 39 40 40 39 38 36 34 33 32 31 29 29
20 21 22 23 23 22 21 20 19 20 19 17 15 16 17 18 20 20 22 25 26 27 27 25 26 28 28 27 31 37 38 36 35 33 33 31 28 27 25 24 29 33 29 25 23 25 29 29 29 32 34 35 35 36 36 36 35 36 37 36 35 35 36 37 38 38 36 35 34 34 33 31 30 29
19 20 21 22 22 22 21 20 20 20 19 17 17 18 19 21 22 23 24 25 25 27 27 25 27 31 32 32 36 40 41 38 36 35 35 34 32 31 30 31 35 36 32 28 22 20 25 28 27 30 33 33 33 34 35 35 36 36 37 36 34 34 33 34 35 35 35 34 34 34 32 31 30 29
19 19 20 20 20 20 20 19 20 20 19 17 18 19 21 23 24 24 24 25 24 25 25 25 28 31 34 37 39 41 43 43 42 41 42 41 39 37 35 33 35 36 35 32 23 17 22 27 25 27 32 32 30 33 33 34 36 36 35 34 34 33 33 32 32 32 32 32 32 32 31 30 29 29
18 17 18 18 19 19 20 19 20 20 19 18 18 20 21 22 23 24 25 24 24 24 24 25 27 30 33 37 40 42 44 45 46 46 45 43 40 34 29 26 29 31 32 32 27 21 22 24 24 26 29 29 29 31 32 33 34 34 33 32 32 32 31 30 30 30 30 30 30 30 30 29 29 28
15 14 14 15 17 19 19 19 19 19 18 17 17 18 18 19 22 26 27 27 26 25 22 22 25 29 34 38 41 44 45 45 47 45 42 41 37 28 18 15 21 25 28 30 29 24 22 23 24 25 25 25 28 29 30 32 33 32 32 31 30 29 29 29 29 29 29 29 29 29 29 28 28 28
12 12 13 14 15 17 18 17 17 17 16 15 15 14 15 18 23 27 28 28 29 25 20 21 26 31 36 38 40 43 45 46 47 44 42 42 35 25 17 14 16 19 25 30 28 23 21 24 25 22 17 18 24 28 29 31 32 31 31 30 30 29 28 27 28 28 28 29 28 27 27 28 28 29
13 13 14 13 13 14 14 14 14 13 13 13 12 11 13 18 23 25 26 26 27 25 22 24 29 33 37 38 40 45 46 47 47 43 40 40 32 25 21 19 15 10 17 28 28 22 20 22 24 21 11 7 14 23 27 28 29 30 30 30 29 29 29 27 27 28 28 28 28 27 27 28 28 29
15 15 13 12 10 10 11 10 11 12 12 11 10 10 13 17 20 23 24 22 22 21 22 25 29 33 37 38 41 46 48 48 47 42 38 36 29 26 24 23 20 13 15 23 26 25 22 21 22 22 17 9 6 13 21 26 27 27 28 29 30 29 29 28 27 27 28 28 27 27 27 28 29 29
15 14 12 10 9 8 9 10 12 12 11 9 8 10 13 15 17 19 20 20 19 19 20 23 28 33 36 38 42 47 48 48 47 44 41 34 24 27 28 25 23 21 22 22 24 25 23 20 20 20 20 17 10 8 14 19 24 27 27 28 30 30 29 29 28 28 27 27 27 27 27 28 29 29
14 12 11 9 8 8 9 12 13 11 8 6 7 9 12 14 16 16 16 17 18 18 19 22 27 32 34 37 41 45 49 52 52 48 45 33 19 26 31 30 27 27 28 24 23 26 24 21 22 21 17 16 14 11 10 11 16 23 26 27 29 30 29 30 30 30 29 28 28 27 27 27 27 28
12 10 9 8 9 9 10 11 10 6 4 4 7 10 11 14 15 15 15 16 17 18 19 21 25 30 32 35 39 43 48 54 55 52 46 30 15 22 28 31 32 31 29 24 22 27 27 22 22 23 21 17 13 10 9 9 10 16 22 25 28 29 30 30 31 31 30 29 29 28 28 27 26 26
9 9 10 10 9 7 5 4 2 1 1 5 8 9 11 14 16 16 16 17 17 17 19 21 24 28 31 33 36 41 47 52 53 49 43 28 11 20 21 25 30 30 29 24 20 24 30 26 22 23 24 20 14 9 9 9 10 14 18 20 23 26 29 29 29 30 30 30 30 30 29 29 27 26
8 8 7 5 2 0 1 2 2 2 3 6 8 8 11 14 16 17 18 18 18 18 20 22 24 27 31 32 35 40 45 49 48 45 43 33 11 16 19 19 23 26 29 28 22 20 25 27 23 21 23 21 18 15 12 10 11 14 17 17 18 22 26 27 27 29 29 29 30 31 31 31 30 29
5 2 1 2 3 2 2 2 2 3 3 5 7 9 12 15 16 16 18 19 18 18 20 22 24 27 30 32 34 38 41 43 45 43 41 38 23 4 14 16 15 19 26 30 26 21 20 23 23 22 22 22 22 21 19 15 12 13 17 18 15 14 20 25 26 26 28 29 29 30 30 30 30 31
0 4 5 4 3 3 3 3 3 4 5 6 8 11 14 16 17 16 17 17 18 18 19 22 24 26 29 31 33 36 37 38 42 44 39 37 34 20 1 7 6 9 16 25 28 26 23 23 24 23 21 21 21 22 22 20 16 14 16 20 18 14 15 22 24 25 27 27 27 27 28 28 30 31
3 4 4 3 2 3 4 4 5 7 8 10 11 13 15 18 18 18 18 19 20 20 20 22 25 27 29 31 32 34 36 36 39 42 38 33 33 31 21 13 13 13 8 6 17 23 23 23 23 23 23 22 22 21 19 18 19 19 17 18 21 19 16 18 22 25 26 25 25 26 28 29 31 31
3 2 1 2 4 6 7 8 10 12 13 14 15 16 17 19 20 21 21 22 23 23 22 23 25 27 28 30 30 32 34 35 36 38 38 33 30 31 29 24 22 22 20 15 9 9 15 20 22 22 24 24 22 21 19 16 17 21 19 17 19 20 19 19 21 23 24 25 25 26 26 28 30 32
2 2 3 5 7 8 10 12 13 15 16 17 18 19 18 20 21 22 22 22 23 23 23 23 25 26 26 28 29 29 30 33 34 35 36 34 30 29 28 25 24 25 23 21 20 15 8 13 19 19 20 21 17 14 15 15 14 17 19 19 19 20 20 20 21 22 24 25 25 24 25 26 28 30
2 3 5 7 9 9 10 11 12 14 16 17 18 19 19 20 21 21 22 22 22 23 24 24 25 26 26 26 28 28 28 30 33 34 34 33 30 29 26 23 24 25 25 24 23 21 13 4 15 17 13 12 11 8 5 5 6 9 14 17 20 21 18 18 20 23 24 24 24 23 22 22 25 28
4 6 8 10 11 10 10 10 11 12 14 15 16 18 18 19 20 20 20 20 20 21 23 24 25 26 27 26 27 27 27 29 30 31 32 31 30 28 26 24 24 24 25 26 26 24 19 7 9 15 10 5 4 4 4 4 4 1 7 11 15 18 18 18 19 21 23 24 24 24 22 21 24 27
8 9 11 12 12 11 10 10 11 12 12 14 15 16 16 17 18 19 18 19 20 21 22 23 24 25 26 27 27 27 27 26 26 27 29 30 29 27 25 23 24 24 24 27 28 27 23 16 5 4 7 7 5 4 3 5 8 7 3 6 10 12 15 17 18 20 23 25 26 26 24 23 24 28
9 9 10 10 10 10 10 10 11 11 12 13 14 15 15 14 16 17 18 19 21 22 22 23 24 25 26 27 27 27 26 25 26 26 27 27 27 26 24 23 23 24 25 27 30 31 26 21 20 16 6 4 7 4 3 3 9 14 11 5 9 10 11 15 18 20 22 25 27 29 28 26 26 27
8 8 8 7 8 9 9 10 10 11 11 12 13 14 14 14 15 16 18 19 20 21 22 23 23 24 25 26 26 25 24 24 25 25 25 25 24 24 24 23 23 24 24 25 30 33 31 28 28 26 18 9 5 8 13 12 11 18 21 11 3 7 11 14 17 19 22 25 26 27 27 27 26 24
7 7 6 6 6 7 9 9 10 10 10 11 11 12 13 13 14 15 16 18 19 20 22 23 23 24 24 26 26 25 24 24 24 23 24 24 23 23 23 22 23 23 22 22 25 29 30 31 30 26 20 17 15 17 22 22 19 23 29 26 17 6 4 10 11 13 17 22 25 25 24 22 20 17
7 7 7 7 7 7 8 8 9 9 10 9 9 11 12 12 12 13 14 16 18 20 21 22 23 24 24 25 26 25 24 25 25 25 26 25 24 24 25 24 24 23 20 18 21 24 27 30 29 26 22 17 12 11 14 15 14 18 25 29 29 25 18 10 6 3 3 9 15 20 22 22 20 20
6 7 8 8 7 6 6 7 8 10 10 9 9 11 12 11 10 11 13 15 17 20 21 22 23 23 23 24 25 24 24 24 25 25 26 26 26 26 26 24 23 21 19 17 18 21 25 28 29 28 27 25 20 13 9 8 9 13 19 24 28 31 32 30 26 21 16 10 4 3 8 12 12 13
6 6 7 7 7 6 5 6 9 10 11 9 9 10 11 10 10 11 14 16 18 20 21 22 23 24 23 23 24 24 24 24 24 24 25 25 25 25 24 24 22 21 21 21 20 19 21 23 26 26 26 26 23 18 13 11 12 14 17 21 24 27 30 34 36 36 34 29 22 13 3 4 4 3
5 5 6 6 6 5 6 7 9 11 10 9 10 11 11 10 11 12 14 17 18 20 21 22 22 23 23 23 24 24 24 24 24 24 24 24 25 24 23 24 24 24 24 24 22 20 18 18 20 22 22 21 21 19 16 14 14 15 17 21 24 25 28 31 33 36 39 39 36 29 19 9 3 1
5 5 5 5 4 4 5 7 9 10 10 10 11 11 11 11 11 12 14 16 18 19 21 21 22 23 23 23 23 24 24 24 25 24 24 24 25 25 24 24 25 25 25 24 22 20 18 17 18 18 17 17 17 18 16 15 15 16 18 21 22 23 25 28 29 30 32 34 35 35 34 30 24 18
Wind_Direction
270 275 272 273 276 275 279 287 293 301 310 319 334 338 326 298 295 298 301 301 290 312 325 324 323 330 330 325 323 319 313 310 305 298 292 288 285 283 281 281 280 277 273 269 264 261 259 257 254 250 247 248 249 247 244 243 244 245 246 247 248 249 251 251 251 251 252 252 252 253 254 255 255 256
265 270 272 273 273 272 275 280 281 279 286 300 315 328 323 298 276 262 288 295 272 300 318 318 316 323 327 326 322 318 314 311 307 300 293 287 282 280 280 279 279 278 275 272 267 264 261 259 256 252 248 246 247 248 245 244 244 245 245 246 247 249 250 251 251 251 252 252 253 253 254 255 255 256
261 263 267 269 270 273 277 277 275 274 277 277 283 301 300 291 281 269 270 278 276 291 307 314 315 318 321 323 322 318 315 312 307 301 295 290 286 282 279 277 276 276 275 273 270 268 264 261 258 253 249 246 245 247 247 244 243 244 244 245 247 248 249 250 251 251 252 253 253 254 254 255 255 256
259 260 262 264 268 271 274 275 270 269 276 275 270 283 289 285 287 278 267 259 279 292 301 309 314 317 318 319 320 318 316 313 309 304 298 292 288 284 280 276 273 273 272 271 271 270 267 263 259 253 249 247 244 245 245 244 242 242 243 244 245 247 248 250 251 252 253 253 254 254 255 255 255 256
259 261 259 261 265 265 265 269 267 263 268 272 269 274 281 283 286 280 269 260 277 297 305 308 311 316 318 317 318 317 314 313 311 307 304 298 291 284 280 277 273 270 269 268 268 268 266 263 259 253 249 247 245 244 245 245 243 243 243 243 245 246 247 248 250 251 252 253 254 255 255 255 255 255
261 260 258 259 261 259 261 264 262 260 263 267 270 271 274 280 286 283 272 266 271 291 302 306 309 313 315 314 317 317 313 311 311 307 305 304 296 286 280 276 273 270 268 267 266 265 265 262 259 254 249 247 245 246 248 248 246 246 245 244 245 246 247 247 248 250 251 252 254 254 255 255 255 255
266 261 257 259 261 258 258 260 260 259 260 264 268 271 273 276 282 287 280 274 272 281 294 302 306 310 313 312 314 315 312 311 310 306 304 304 300 291 282 277 273 270 268 267 265 264 263 261 259 255 251 248 247 248 249 249 248 248 248 247 246 246 246 246 247 249 250 251 253 254 254 255 255 255
269 264 259 260 263 262 260 259 259 258 259 263 265 268 271 272 277 287 288 283 279 279 287 296 300 306 309 309 312 313 311 310 309 306 303 302 300 295 287 279 274 271 268 266 265 263 262 261 259 257 254 252 250 250 250 250 249 249 249 249 248 247 246 246 247 248 249 250 252 253 254 254 255 255
267 267 267 266 267 266 265 262 260 259 260 263 265 266 268 270 273 281 287 288 286 281 281 290 298 303 306 307 311 312 311 310 310 307 304 302 301 298 293 285 276 271 268 265 264 262 261 260 259 257 256 254 253 252 251 250 249 249 250 250 249 248 246 245 246 247 249 250 252 253 253 254 254 254
270 270 272 273 273 272 272 270 267 265 263 263 265 265 266 268 270 276 283 287 286 282 282 288 294 300 304 306 309 313 313 310 307 306 305 304 303 302 299 293 283 273 267 263 262 260 259 258 257 256 256 255 254 253 251 250 249 249 249 250 250 249 247 245 245 247 248 250 251 253 253 253 254 254
272 272 274 276 277 277 279 280 278 272 267 265 265 266 267 267 267 273 281 283 284 283 284 289 291 295 301 304 306 312 315 310 305 304 303 303 305 304 302 297 290 280 269 263 261 259 258 258 258 257 256 256 255 253 251 249 248 248 248 249 250 250 248 245 245 247 248 250 251 252 253 253 253 254
271 272 276 278 281 283 286 289 288 281 274 270 269 270 271 268 267 274 281 280 280 281 282 287 290 292 298 303 306 311 314 311 307 306 302 298 298 300 299 296 292 285 275 265 260 259 257 255 256 256 256 256 255 253 251 249 250 250 248 248 249 248 247 245 245 247 249 250 251 252 252 252 253 254
272 274 278 282 284 286 291 296 297 291 283 276 274 276 276 272 271 277 281 277 277 280 281 284 288 290 295 301 305 309 311 308 305 305 302 294 291 293 294 292 291 287 279 268 260 257 254 250 251 252 253 254 253 251 250 249 251 251 248 247 247 246 245 244 245 247 248 248 250 251 252 252 252 252
274 275 279 283 285 286 290 294 296 296 292 284 279 280 280 278 278 280 278 276 277 279 278 281 286 289 291 297 302 304 306 306 303 302 300 295 293 292 290 290 290 287 279 267 259 256 253 247 246 247 248 251 252 250 250 249 251 250 247 245 246 244 243 243 244 246 246 247 248 250 250 250 249 248
276 276 278 282 283 284 287 292 298 302 300 295 289 288 286 285 284 281 277 277 278 277 275 279 283 285 286 294 300 301 303 303 301 299 297 293 290 286 282 285 288 287 281 266 255 254 252 245 240 242 244 247 249 250 249 249 248 246 244 244 244 242 240 240 241 243 244 244 246 247 248 247 247 246
276 276 278 281 282 282 285 291 299 304 305 304 300 295 293 291 289 286 281 278 278 277 277 279 283 284 286 293 298 299 300 301 299 297 293 287 282 277 270 269 274 278 279 271 257 252 251 244 237 239 242 244 246 249 250 248 245 243 242 243 243 240 238 238 239 241 242 242 242 244 245 246 246 246
276 278 280 282 281 281 283 288 296 303 307 307 301 297 297 298 299 297 291 286 284 282 281 280 282 284 286 289 293 297 298 299 297 294 290 285 279 271 265 263 266 270 273 272 263 256 252 244 234 236 242 243 243 246 249 248 245 244 244 244 243 240 237 237 238 239 239 239 240 242 243 244 245 244
282 285 284 283 281 280 281 285 293 301 306 305 300 298 300 302 304 303 299 295 293 289 285 280 279 283 286 288 292 298 300 297 292 289 286 283 278 271 266 264 265 266 265 265 264 261 254 243 231 233 239 241 241 243 245 247 246 245 247 246 242 239 236 236 237 237 238 238 239 240 241 241 241 240
291 291 288 285 282 281 283 287 292 298 302 301 299 300 301 303 304 303 302 302 301 298 294 288 285 289 294 296 297 301 303 298 293 289 285 282 277 273 268 263 261 261 260 258 257 259 255 241 227 231 238 238 238 240 242 245 245 246 247 245 241 238 236 236 237 237 236 236 237 237 237 237 236 236
296 294 291 289 286 284 286 289 292 296 297 295 297 299 300 303 303 303 307 310 309 307 304 300 297 302 308 310 308 307 305 300 297 292 287 281 274 267 260 255 253 254 255 251 246 251 256 242 227 231 237 235 235 238 239 242 245 245 245 244 241 239 237 237 238 236 234 233 233 233 233 233 233 233
295 295 294 293 291 288 287 290 294 295 292 291 296 297 300 306 307 309 315 317 316 313 308 307 314 319 321 320 317 313 309 305 301 294 284 278 269 255 245 245 244 246 250 249 241 239 246 242 232 233 236 232 234 237 238 240 243 243 244 243 241 240 238 238 237 234 231 230 230 231 232 232 233 234
291 295 294 294 291 287 287 291 292 291 289 291 294 297 306 312 310 312 318 318 317 315 310 317 327 328 325 322 319 316 313 311 308 297 285 280 268 244 229 236 236 240 247 245 235 228 235 238 231 229 230 231 233 235 238 239 239 240 241 241 241 240 239 237 235 230 229 228 229 231 232 233 235 236
294 299 299 297 291 285 288 291 289 289 289 289 289 298 312 312 308 312 316 315 315 313 311 321 327 326 324 323 322 321 319 317 313 303 292 286 268 235 220 225 222 229 246 237 224 217 226 230 224 219 215 222 233 233 234 236 235 236 237 237 238 239 238 236 234 230 228 229 230 232 234 234 236 238
302 306 306 303 296 292 295 295 294 296 291 282 284 302 315 312 310 314 315 312 312 310 308 317 323 322 323 326 327 328 325 322 318 311 306 297 268 228 211 214 212 216 235 229 215 210 218 223 219 215 213 213 228 225 224 228 230 232 234 234 235 237 235 233 232 229 229 230 231 233 235 236 237 239
306 309 308 305 302 301 300 298 301 300 285 272 285 310 320 318 316 317 315 312 312 308 307 318 324 323 325 328 331 331 329 326 324 319 318 311 271 222 207 206 207 215 228 227 214 209 213 214 211 209 210 215 222 209 208 221 226 227 231 232 232 233 232 228 227 227 227 228 230 232 234 236 237 239
305 308 307 305 306 304 298 295 298 291 268 264 301 320 326 328 325 323 320 317 316 313 316 325 326 324 326 329 332 333 332 332 331 328 326 320 275 222 212 209 208 212 219 223 219 213 211 211 208 201 197 207 219 214 199 208 221 224 227 229 230 231 231 228 227 227 227 227 229 230 233 235 236 238
303 304 302 303 304 301 297 294 291 272 248 290 325 326 329 336 336 334 333 330 325 324 329 332 326 324 327 330 332 334 335 335 334 333 333 328 273 225 218 215 216 217 216 220 226 221 216 216 212 204 199 200 205 208 203 202 210 216 220 225 227 229 230 230 229 229 228 228 229 229 231 233 233 234
301 301 300 302 302 300 303 308 307 239 305 336 338 333 337 346 350 351 348 343 338 338 340 336 327 324 328 330 331 334 336 337 335 336 343 343 276 228 222 217 218 220 218 220 232 227 219 218 216 208 204 202 200 200 203 200 200 204 209 216 222 225 227 228 229 229 229 228 227 228 229 228 227 225
303 305 303 299 290 17 48 63 72 38 360 351 347 346 353 358 360 1 357 352 351 350 345 337 329 327 330 332 335 338 340 339 338 342 352 358 327 231 225 221 219 221 219 221 235 238 223 219 218 211 206 206 208 206 199 189 194 202 202 202 211 221 224 225 225 225 225 225 226 228 229 230 228 225
305 319 78 111 117 83 33 47 67 36 15 4 359 3 8 9 8 8 3 359 357 353 345 339 333 329 332 337 343 346 344 341 342 347 355 3 4 282 222 224 226 227 224 226 237 249 238 226 223 217 209 207 209 210 208 198 193 200 203 201 201 210 220 222 222 222 223 224 227 229 230 231 231 229
271 114 107 100 84 42 35 64 70 41 23 12 12 16 16 13 13 11 8 5 2 355 347 341 336 335 340 345 348 348 346 343 348 353 356 3 12 21 76 214 244 249 232 228 237 250 252 242 231 224 216 211 208 212 215 210 202 200 205 206 204 206 216 218 217 220 224 224 225 227 226 226 226 227
119 111 109 100 67 37 37 53 49 35 27 22 21 21 17 12 13 13 12 11 9 2 354 347 343 344 348 350 349 348 348 347 350 355 358 1 11 24 38 40 20 10 358 263 243 245 250 248 238 229 225 222 218 216 215 214 215 213 210 209 211 215 221 219 214 218 221 219 218 220 221 221 222 223
110 93 81 67 50 35 31 37 36 29 24 21 21 21 16 11 11 13 13 12 9 5 360 354 351 351 351 351 350 350 350 348 349 356 1 2 6 19 31 32 24 19 16 8 338 271 249 244 237 232 229 229 227 221 211 208 217 219 213 209 210 212 220 222 216 213 212 210 211 214 217 219 222 225
77 59 62 57 53 48 43 41 36 28 22 17 13 14 14 11 9 10 12 13 10 6 3 359 357 356 354 352 352 352 349 348 351 358 4 3 5 14 23 26 23 19 16 11 6 357 312 240 220 212 213 212 207 207 208 210 218 220 215 212 211 210 215 219 215 211 210 209 208 208 211 217 222 226
60 68 73 65 58 54 50 45 38 29 24 18 12 9 9 9 9 8 10 12 12 8 5 3 2 0 357 354 354 354 352 351 354 359 3 5 5 9 14 20 20 17 16 13 7 3 354 250 187 168 166 179 169 150 162 196 215 215 211 214 218 217 215 213 211 209 209 210 208 204 205 212 218 223
82 79 80 75 64 56 51 45 37 30 25 22 17 12 9 8 8 8 9 12 13 11 8 5 4 3 360 357 357 358 358 358 358 359 1 4 6 6 8 13 15 15 17 15 10 8 6 350 188 168 157 166 174 153 124 85 69 171 209 215 219 220 218 217 213 207 203 204 205 204 204 209 216 221
95 83 78 74 64 55 48 40 35 33 30 25 22 18 13 10 8 8 11 14 15 14 11 8 6 4 2 1 1 1 2 2 2 1 2 3 4 4 4 6 8 10 15 16 14 14 16 13 10 172 177 181 172 156 129 71 46 31 332 248 229 220 220 217 211 207 207 209 209 209 208 213 219 223
92 78 70 65 59 54 51 44 39 38 34 29 24 18 14 11 9 9 13 15 15 14 12 10 7 6 6 5 4 2 2 4 5 5 5 4 3 2 2 2 4 6 10 14 16 17 20 25 27 25 19 208 198 176 132 71 33 28 19 310 252 238 228 219 211 208 209 211 213 214 216 219 224 229
84 74 67 64 59 56 53 48 44 40 34 30 24 16 10 7 5 8 12 14 14 13 12 11 9 7 7 8 7 4 4 6 6 5 4 4 4 4 2 2 3 4 6 12 16 17 19 23 25 25 27 40 79 104 110 108 71 48 47 40 306 249 233 227 222 217 212 211 212 214 217 221 225 230
88 76 69 68 68 62 54 48 44 39 34 29 21 12 6 1 2 7 12 13 14 15 14 13 12 10 9 9 9 8 7 7 7 6 5 5 7 7 7 8 7 6 8 12 14 16 18 21 22 26 36 53 70 84 92 93 77 58 55 54 52 59 203 224 230 228 222 216 211 206 207 211 213 211
92 78 75 75 73 66 55 46 39 32 28 24 13 6 5 4 5 11 15 17 19 19 17 15 15 13 11 10 10 10 8 7 6 7 7 7 8 9 13 16 13 9 10 11 10 12 18 26 33 40 46 52 59 68 74 75 67 58 57 57 58 63 72 83 97 115 211 219 209 202 202 203 200 194
92 81 79 73 69 65 53 39 30 21 18 17 12 9 12 14 14 18 22 24 25 24 21 19 17 16 14 13 12 12 10 7 6 7 7 9 9 9 12 15 13 9 9 9 9 15 25 33 42 48 50 49 49 51 54 56 56 61 62 59 58 61 65 68 71 72 65 56 53 218 214 207 198 191
103 94 84 73 66 60 44 29 21 15 13 16 20 21 23 24 26 29 29 28 28 26 23 21 19 19 18 15 14 14 13 10 8 7 8 10 11 10 9 10 12 14 16 17 20 29 38 41 44 46 46 46 48 51 51 47 44 51 60 61 58 59 62 64 66 67 66 63 57 44 5 241 229 205
118 112 95 77 64 53 41 28 18 16 19 25 28 30 35 39 39 38 35 32 30 28 25 22 21 21 20 17 16 16 16 13 12 11 10 11 13 13 11 11 15 19 21 21 24 31 39 46 52 52 48 46 49 53 54 49 43 43 52 59 58 57 58 59 60 61 62 62 62 60 61 72 90 209
125 124 109 84 64 56 48 32 20 20 27 31 31 36 47 53 50 44 39 36 34 31 28 25 22 22 21 20 17 17 17 18 18 17 16 15 15 16 16 15 17 21 22 22 22 25 31 41 53 59 57 54 55 57 56 53 50 48 50 53 54 54 57 58 56 54 54 56 59 62 65 69 74 72